This is the latest recevied weather packets stored in our database for station/object KB1FFS. If no packets are shown the sender has not sent any weather packets the latest 10 day(s).
| Time | Temp. | Humidity | Pressure | Rain* | Wind** | Luminosity | Snow |
|---|---|---|---|---|---|---|---|
| 1777136213 | 29.44° C | 67% | 1008.5 hPa | 0 mm | - | 914 W/m² | - |
| 1777135910 | 28.89° C | 67% | 1008.5 hPa | 0 mm | - | 614 W/m² | - |
| 1777135605 | 28.89° C | 69% | 1008.8 hPa | 0 mm | - | 760 W/m² | - |
| 1777135301 | 28.33° C | 70% | 1008.7 hPa | 0 mm | - | 758 W/m² | - |
| 1777134999 | 28.89° C | 69% | 1008.6 hPa | 0 mm | - | 474 W/m² | - |
| 1777134696 | 28.33° C | 71% | 1008.6 hPa | 0 mm | - | 761 W/m² | - |
| 1777134392 | 28.33° C | 72% | 1008.8 hPa | 0 mm | - | 343 W/m² | - |
| 1777134088 | 27.78° C | 73% | 1008.7 hPa | 0 mm | - | 338 W/m² | - |
| 1777133785 | 27.78° C | 73% | 1008.7 hPa | 0 mm | - | 240 W/m² | - |
| 1777133481 | 27.22° C | 74% | 1008.9 hPa | 0 mm | - | 275 W/m² | - |
| 1777133181 | 27.22° C | 75% | 1008.6 hPa | 0 mm | - | 305 W/m² | - |
| 1777132876 | 27.22° C | 75% | 1008.7 hPa | 0 mm | - | 253 W/m² | - |
| 1777132572 | 26.67° C | 76% | 1008.6 hPa | 0 mm | - | 240 W/m² | - |
| 1777132269 | 27.22° C | 76% | 1008.6 hPa | 0 mm | - | 152 W/m² | - |
| 1777131965 | 26.67° C | 76% | 1008.7 hPa | 0 mm | - | 198 W/m² | - |
| 1777131663 | 26.67° C | 77% | 1008.5 hPa | 0 mm | - | 262 W/m² | - |
| 1777131357 | 26.67° C | 76% | 1008.3 hPa | 0 mm | - | 136 W/m² | - |
| 1777131057 | 26.67° C | 77% | 1008.5 hPa | 0 mm | - | 259 W/m² | - |
| 1777130753 | 26.67° C | 77% | 1008.2 hPa | 0 mm | - | 247 W/m² | - |
| 1777130449 | 26.67° C | 76% | 1008.4 hPa | 0 mm | - | 222 W/m² | - |
| 1777130145 | 27.22° C | 76% | 1008.3 hPa | 0 mm | - | 194 W/m² | - |
| 1777129841 | 26.67° C | 76% | 1008.3 hPa | 0 mm | - | 254 W/m² | - |
| 1777129537 | 26.67° C | 78% | 1008.4 hPa | 0 mm | - | 234 W/m² | - |
| 1777129236 | 26.67° C | 79% | 1008.1 hPa | 0 mm | - | 200 W/m² | - |
| 1777128932 | 26.11° C | 79% | 1008.2 hPa | 0 mm | - | 195 W/m² | - |
* Rain latest hour (hover to see other rain measurements)
** Current wind speed in m/s (hover to see current wind gust speed)